Regional Weather Roundup
Issued by NWS Sterling, VA

Home | Current Version | Previous Version | Text Only | Print | Product List | Glossary On
Versions: 1 2 3 4 5 6 7 8 9 10 11 12 13 14 15 16 17 18 19 20 21 22 23 24 25 26 27 28 29 30 31 32 33 34 35 36 37 38 39 40 41 42 43 44 45 46 47 48 49 50
000
ASUS41 KLWX 051810
RWRLWX

REGIONAL WEATHER ROUNDUP
NATIONAL WEATHER SERVICE BALTIMORE MD/WASHINGTON DC
200 PM EDT THU MAY 05 2016

Note: "FAIR" indicates few or no clouds below 12,000 feet
with no significant weather and/or obstructions to visibility.
 TC=TEMPERATURE CELSIUS

 * =Non NWS site. Station does not report precipitation (e.g. rain,
    snow, etc.), thunder, or fog.

DCZ001-MDZ009-015-VAZ040>042-051-053>054-051900-
WASHINGTON METRO

CITY           SKY/WX    TMP DP  RH WIND       PRES   REMARKS
WASHINGTON NAT CLOUDY    54  48  80 NE13      29.65F
DULLES         CLOUDY    53  47  79 NE12      29.66F
ANDREWS AFB    CLOUDY    52  48  87 NE10      29.63F
FT BELVOIR     CLOUDY    54  48  81 VRB6      29.65F
QUANTICO       CLOUDY    55  49  80 NE18      29.64F
COLLEGE PARK*  CLOUDY    52  46  82 N6        29.65F
LEESBURG*      LGT RAIN  54  54 100 N6        29.67F
MANASSAS*      CLOUDY    55  50  82 N13       29.65
GAITHERSBURG*  CLOUDY    54  46  76 N5        29.69F

$$

MDZ006>007-011-014-051900-
BALTIMORE METRO

CITY           SKY/WX    TMP DP  RH WIND       PRES   REMARKS
BWI AIRPORT    CLOUDY    54  46  74 NE9       29.65F
MD SCIENCE CTR   N/A     54  45  71 MISG      29.67F
MARTIN STATE   CLOUDY    54  50  87 NW3       29.67F
ANNAPOLIS      CLOUDY    52  48  86 N7        29.65F
FORT MEADE*    CLOUDY    54  46  76 NE8       29.68F

$$

MDZ012-015-019>023-051900-
MARYLAND EASTERN SHORE

CITY           SKY/WX    TMP DP  RH WIND       PRES   REMARKS
OCEAN CITY     CLOUDY    50  47  89 NE14G28   29.61F FOG
SALISBURY      CLOUDY    52  47  83 NE10      29.61F
CAMBRIDGE*     CLOUDY    52  46  82 N10G16    29.62F
EASTON*        CLOUDY   N/A N/A N/A NE10      29.67F

$$

MDZ017>025-051900-
SOUTHERN MARYLAND

CITY           SKY/WX    TMP DP  RH WIND       PRES   REMARKS
PATUXENT RIVER CLOUDY    53  46  77 N13       29.62F
ST INIGOES     CLOUDY    53  47  79 VRB6      29.61F
LEONARDTOWN*   CLOUDY    52  45  76 NE7       29.64F

$$

MDZ003>005-051900-
NORTH CENTRAL MARYLAND

CITY           SKY/WX    TMP DP  RH WIND       PRES   REMARKS
FREDERICK*     CLOUDY    54  48  82 NE8       29.69F
HAGERSTOWN APT CLOUDY    57  47  69 N14G20    29.66F
WESTMINSTER*   CLOUDY    52  48  87 NE10      29.66F

$$

MDZ501>502-051900-
WESTERN MARYLAND

CITY           SKY/WX    TMP DP  RH WIND       PRES   REMARKS
OAKLAND*       CLOUDY    46  45  93 NE5       29.66F
CUMBERLAND*    CLOUDY    59  48  67 W3        29.70F

$$

VAZ025>031-051900-
SHENANDOAH VALLEY

CITY           SKY/WX    TMP DP  RH WIND       PRES   REMARKS
WINCHESTER*    CLOUDY    52  48  87 N5        29.67S FOG
FRONT ROYAL*   CLOUDY    50  50 100 CALM      29.65F
LURAY*         CLOUDY    52  52 100 NE8       29.65S
NEW MARKET*    CLOUDY    52  49  89 N10       29.64F
STAUNTON*      RAIN      52  52 100 N9        29.66S
WAYNESBORO*    CLOUDY    52  50  93 N13G20    29.63F

$$

WVZ021-048>050-054>055-051900-
EASTERN WEST VIRGINIA PANHANDLE

CITY           SKY/WX    TMP DP  RH WIND       PRES   REMARKS
MARTINSBURG    CLOUDY    54  46  74 N8        29.66F
PETERSBURG*    RAIN      53  50  89 CALM      29.67F

$$

VAZ036>039-050-051900-
CENTRAL FOOTHILLS

CITY           SKY/WX    TMP DP  RH WIND       PRES   REMARKS
CHARLOTTESVILL CLOUDY    55  49  80 N8        29.63F
CULPEPER*      CLOUDY    54  50  86 N6        29.65F
ORANGE*        CLOUDY    52  52 100 NE6       29.65F
GORDONSVILLE*  CLOUDY    53  50  89 NE7G16    29.63S
WARRENTON*     CLOUDY    55  46  72 NE12G18   29.64F

$$

VAZ055>057-051900-
NORTH AND CENTRAL PIEDMONT

CITY           SKY/WX    TMP DP  RH WIND       PRES   REMARKS
FREDERICKSBRG* CLOUDY    54  54 100 N9G17     29.62F
STAFFORD*      CLOUDY    53  49  85 N12G18    29.67F

$$

NCZ024-NYZ072-PAZ021-071-VAZ022-071-051900-
OTHER REGIONAL OBSERVATIONS

CITY           SKY/WX    TMP DP  RH WIND       PRES   REMARKS
NEW YORK CITY  CLOUDY    54  42  64 E8        29.69F
PHILADELPHIA   CLOUDY    55  44  66 NE13      29.66S
PITTSBURGH     PTSUNNY   62  46  55 N7        29.68F
ROANOKE        LGT RAIN  50  44  80 NW13      29.66F
RICHMOND       CLOUDY    54  51  90 N14       29.59F
RALEIGH        LGT RAIN  53  51  93 NW8       29.60R

$$

ANZ530>537-051900-
MARINE OBSERVATIONS

STATION/POSITION TIME  TEMP    WIND        PRES
                       AIR SEA DIR/SP/G
                 (UTC) (F)     (DEG/KT/KT) (MB)
THOMAS PT LIGHT  1800   52 58   20/ 14/ 16 1004.9F
BALT KEY BRIDGE  1700   51      20/  8/ 10 1004.4F
COVE POINT       1700   51      50/ 13/ 17 1004.0F
LEWISETTA        1700   53 61   60/  6/ 10 1002.7F
SOLOMONS ISLAND  1700   52 60   20/ 10/ 17   N/A
PINEY POINT      1700           60/  7/ 10   N/A

$$




USA.gov is the U.S. government's official web portal to all federal, state and local government web resources and services.